ROMMA est une association bénévole à but non lucratif. Votre soutien est indispensable : ADHERER à ROMMA ou FAIRE un DON

Le Versoud - (38, Isère)

Vallée du Grésivaudan (220 m)   Longitude: 05° 51' 44" E   Latitude: 45° 13' 06" N Station partenaire n°6
 

Détail journalier du     <<     >>

Température Humidité Pression Vent Dir Rafale Dir. rafale Ensol.
Heure (°C) (%) (hPa) (km/h) (km/h) (min)
01:00 18.173101400---0
02:00 17.275101400---0
03:00 16.480101400---0
04:00 16.079101500---0
05:00 15.283101500---0
06:00 14.388101500---0
07:00 14.188101500---0
08:00 16.779101600---40
09:00 18.473101602N60
10:00 20.865101502N60
11:00 22.658101506ENE60
12:00 23.5561015010S60
13:00 24.752101403OSO60
14:00 26.448101405O60
15:00 27.6471013013NO60
16:00 27.74810131ONO11NO60
17:00 29.145101208NO60
18:00 29.640101208NNO55
19:00 28.94310121NNE10N50
20:00 27.247101202NNE5
21:00 25.252101202NNE10
22:00 23.1631013011ENE0
23:00 21.369101300---0
minuit 20.176101300---0

Graphique du 16-07-2019

 

Serveur OMMA